TimeEDT,TemperatureF,Dew PointF,Humidity,Sea Level PressureIn,VisibilityMPH,Wind Direction,Wind SpeedMPH,Gust SpeedMPH,PrecipitationIn,Events,Conditions,WindDirDegrees,DateUTC
12:54 AM,68.0,66.0,93,30.24,10.0,Calm,Calm,-,N/A,,Clear,0,2013-07-15 04:54:00
1:54 AM,66.9,66.0,97,30.24,10.0,Calm,Calm,-,N/A,,Mostly Cloudy,0,2013-07-15 05:54:00
2:25 AM,66.2,66.2,100,30.24,10.0,Calm,Calm,-,N/A,,Mostly Cloudy,0,2013-07-15 06:25:00
2:54 AM,66.0,64.9,96,30.23,9.0,Calm,Calm,-,N/A,,Mostly Cloudy,0,2013-07-15 06:54:00
3:54 AM,66.0,64.9,96,30.23,9.0,Calm,Calm,-,N/A,,Overcast,0,2013-07-15 07:54:00
3:58 AM,66.2,66.2,100,30.24,1.5,Calm,Calm,-,N/A,,Overcast,0,2013-07-15 07:58:00
4:09 AM,66.2,64.4,94,30.24,0.5,Calm,Calm,-,N/A,Fog,Fog,0,2013-07-15 08:09:00
4:19 AM,64.4,64.4,100,30.24,2.0,Calm,Calm,-,N/A,,Overcast,0,2013-07-15 08:19:00
4:26 AM,64.4,64.4,100,30.24,3.0,Calm,Calm,-,N/A,,Overcast,0,2013-07-15 08:26:00
4:28 AM,64.4,64.4,100,30.24,1.5,Calm,Calm,-,N/A,,Overcast,0,2013-07-15 08:28:00
4:37 AM,64.4,64.4,100,30.24,0.5,Calm,Calm,-,N/A,Fog,Fog,0,2013-07-15 08:37:00
4:54 AM,64.9,64.9,100,30.24,0.5,Calm,Calm,-,N/A,Fog,Fog,0,2013-07-15 08:54:00
5:12 AM,64.4,64.4,100,30.24,1.2,Calm,Calm,-,N/A,,Overcast,0,2013-07-15 09:12:00
5:17 AM,64.4,64.4,100,30.24,3.0,Calm,Calm,-,N/A,,Overcast,0,2013-07-15 09:17:00
5:54 AM,64.9,64.9,100,30.24,7.0,Calm,Calm,-,N/A,,Mostly Cloudy,0,2013-07-15 09:54:00
6:08 AM,64.4,64.4,100,30.25,7.0,Calm,Calm,-,N/A,,Overcast,0,2013-07-15 10:08:00
6:54 AM,66.9,66.0,97,30.24,9.0,Calm,Calm,-,N/A,,Clear,0,2013-07-15 10:54:00
7:54 AM,72.0,68.0,87,30.25,10.0,Calm,Calm,-,N/A,,Clear,0,2013-07-15 11:54:00
8:54 AM,77.0,69.1,76,30.24,10.0,Calm,Calm,-,N/A,,Clear,0,2013-07-15 12:54:00
9:54 AM,82.0,69.1,65,30.23,10.0,Calm,Calm,-,N/A,,Mostly Cloudy,0,2013-07-15 13:54:00
10:54 AM,84.0,69.1,61,30.22,10.0,WNW,3.5,-,N/A,,Mostly Cloudy,290,2013-07-15 14:54:00
11:54 AM,84.9,64.9,51,30.21,10.0,Calm,Calm,-,N/A,,Mostly Cloudy,0,2013-07-15 15:54:00
12:54 PM,88.0,64.9,46,30.19,10.0,West,9.2,-,N/A,,Scattered Clouds,280,2013-07-15 16:54:00
1:54 PM,90.0,63.0,40,30.17,10.0,Variable,5.8,-,N/A,,Scattered Clouds,0,2013-07-15 17:54:00
2:54 PM,90.0,63.0,40,30.17,10.0,West,10.4,-,N/A,,Scattered Clouds,270,2013-07-15 18:54:00
3:54 PM,90.0,62.1,39,30.16,10.0,WNW,8.1,-,N/A,,Scattered Clouds,300,2013-07-15 19:54:00
4:54 PM,90.0,63.0,40,30.14,10.0,NW,6.9,-,N/A,,Partly Cloudy,310,2013-07-15 20:54:00
5:54 PM,89.1,64.0,43,30.14,10.0,WNW,5.8,-,N/A,,Clear,290,2013-07-15 21:54:00
6:54 PM,89.1,64.9,45,30.13,10.0,Variable,3.5,-,N/A,,Clear,0,2013-07-15 22:54:00
7:54 PM,82.9,68.0,60,30.14,10.0,NNW,3.5,-,N/A,,Mostly Cloudy,330,2013-07-15 23:54:00
8:54 PM,77.0,69.1,76,30.15,10.0,Calm,Calm,-,N/A,,Mostly Cloudy,0,2013-07-16 00:54:00
9:54 PM,80.1,63.0,56,30.17,10.0,NNE,3.5,-,N/A,,Scattered Clouds,20,2013-07-16 01:54:00
10:54 PM,72.0,69.1,91,30.18,10.0,South,3.5,-,N/A,,Clear,180,2013-07-16 02:54:00
11:54 PM,70.0,66.0,87,30.19,10.0,Calm,Calm,-,N/A,,Clear,0,2013-07-16 03:54:00